Time,TemperatureF,DewpointF,PressureIn,WindDirection,WindDirectionDegrees,WindSpeedMPH,WindSpeedGustMPH,Humidity,HourlyPrecipIn,Conditions,Clouds,dailyrainin,SoftwareType,DateUTC
2013-03-29 00:00:00,40.0,31.0,29.98,West,270,0.2,1.1,70,0.00,,,0.00,WUHU216HW,2013-03-29 04:00:00,
2013-03-29 00:05:00,39.8,30.8,29.99,West,270,0.0,1.1,70,0.00,,,0.00,WUHU216HW,2013-03-29 04:05:00,
2013-03-29 00:10:00,39.8,30.8,29.99,West,270,0.0,0.0,70,0.00,,,0.00,WUHU216HW,2013-03-29 04:10:00,
2013-03-29 00:15:00,39.8,30.8,29.98,West,270,0.0,0.0,70,0.00,,,0.00,WUHU216HW,2013-03-29 04:15:00,
2013-03-29 00:20:00,39.8,30.8,29.98,West,270,0.0,0.0,70,0.00,,,0.00,WUHU216HW,2013-03-29 04:20:00,
2013-03-29 00:25:00,39.8,30.8,29.99,WSW,248,0.9,0.9,70,0.00,,,0.00,WUHU216HW,2013-03-29 04:25:00,
2013-03-29 00:30:00,39.8,30.8,29.99,WSW,248,0.2,0.9,70,0.00,,,0.00,WUHU216HW,2013-03-29 04:30:00,
2013-03-29 00:35:00,39.6,30.6,29.98,WSW,248,0.4,0.4,70,0.00,,,0.00,WUHU216HW,2013-03-29 04:35:00,
2013-03-29 00:40:00,39.6,30.6,29.98,WSW,248,0.0,0.4,70,0.00,,,0.00,WUHU216HW,2013-03-29 04:40:00,
2013-03-29 00:45:00,39.6,30.6,29.99,WSW,248,0.0,0.0,70,0.00,,,0.00,WUHU216HW,2013-03-29 04:45:00,
2013-03-29 00:50:00,39.6,30.6,29.98,WSW,248,0.0,0.0,70,0.00,,,0.00,WUHU216HW,2013-03-29 04:50:00,
2013-03-29 00:55:00,39.6,30.6,29.98,NNE,23,0.2,0.7,70,0.00,,,0.00,WUHU216HW,2013-03-29 04:55:00,
2013-03-29 01:00:00,39.8,31.2,29.98,North,0,1.6,1.6,71,0.00,,,0.00,WUHU216HW,2013-03-29 05:00:00,
2013-03-29 01:05:00,40.0,31.3,29.98,North,0,0.2,1.6,71,0.00,,,0.00,WUHU216HW,2013-03-29 05:05:00,
2013-03-29 01:10:00,40.0,31.3,29.98,North,0,0.4,1.1,71,0.00,,,0.00,WUHU216HW,2013-03-29 05:10:00,
2013-03-29 01:15:00,40.0,31.3,29.98,NNW,338,0.7,1.6,71,0.00,,,0.00,WUHU216HW,2013-03-29 05:15:00,
2013-03-29 01:20:00,40.0,31.0,29.98,WNW,293,0.0,1.6,70,0.00,,,0.00,WUHU216HW,2013-03-29 05:20:00,
2013-03-29 01:25:00,40.0,31.0,29.99,WNW,293,0.0,0.9,70,0.00,,,0.00,WUHU216HW,2013-03-29 05:25:00,
2013-03-29 01:30:00,39.8,31.2,29.99,NW,315,0.7,0.9,71,0.00,,,0.00,WUHU216HW,2013-03-29 05:30:00,
2013-03-29 01:35:00,39.8,31.2,29.99,NW,315,0.9,1.1,71,0.00,,,0.00,WUHU216HW,2013-03-29 05:35:00,
2013-03-29 01:40:00,39.8,31.2,29.99,North,0,0.0,1.1,71,0.00,,,0.00,WUHU216HW,2013-03-29 05:40:00,
2013-03-29 01:45:00,39.8,31.2,29.99,WNW,293,0.0,2.9,71,0.00,,,0.00,WUHU216HW,2013-03-29 05:45:00,
2013-03-29 01:50:00,40.0,31.3,29.99,NNW,338,0.0,2.9,71,0.00,,,0.00,WUHU216HW,2013-03-29 05:50:00,
2013-03-29 01:55:00,40.0,31.3,29.99,WNW,293,0.0,2.0,71,0.00,,,0.00,WUHU216HW,2013-03-29 05:55:00,
2013-03-29 02:00:00,40.0,31.3,29.99,SW,225,2.2,2.2,71,0.00,,,0.00,WUHU216HW,2013-03-29 06:00:00,
2013-03-29 02:05:00,40.1,31.1,29.99,WNW,293,0.0,2.2,70,0.00,,,0.00,WUHU216HW,2013-03-29 06:05:00,
2013-03-29 02:10:00,40.1,31.1,29.99,WNW,293,0.4,1.8,70,0.00,,,0.00,WUHU216HW,2013-03-29 06:10:00,
2013-03-29 02:15:00,40.0,31.0,29.99,NW,315,1.1,1.6,70,0.00,,,0.00,WUHU216HW,2013-03-29 06:15:00,
2013-03-29 02:20:00,40.0,31.0,29.99,NNW,338,0.9,1.1,70,0.00,,,0.00,WUHU216HW,2013-03-29 06:20:00,
2013-03-29 02:25:00,40.0,31.0,29.99,NNW,338,0.2,0.9,70,0.00,,,0.00,WUHU216HW,2013-03-29 06:25:00,
2013-03-29 02:30:00,39.8,30.8,29.99,NNW,338,0.2,0.7,70,0.00,,,0.00,WUHU216HW,2013-03-29 06:30:00,
2013-03-29 02:35:00,39.8,30.8,29.99,West,270,0.0,1.3,70,0.00,,,0.00,WUHU216HW,2013-03-29 06:35:00,
2013-03-29 02:40:00,39.8,30.8,29.99,West,270,0.0,1.3,70,0.00,,,0.00,WUHU216HW,2013-03-29 06:40:00,
2013-03-29 02:45:00,39.6,30.6,29.99,NW,315,0.4,0.4,70,0.00,,,0.00,WUHU216HW,2013-03-29 06:45:00,
2013-03-29 02:50:00,39.4,30.4,29.99,North,0,0.9,1.8,70,0.00,,,0.00,WUHU216HW,2013-03-29 06:50:00,
2013-03-29 02:55:00,39.6,30.6,29.99,NNW,338,1.1,1.8,70,0.00,,,0.00,WUHU216HW,2013-03-29 06:55:00,
2013-03-29 03:00:00,39.6,30.6,29.99,North,0,0.4,1.3,70,0.00,,,0.00,WUHU216HW,2013-03-29 07:00:00,
2013-03-29 03:05:00,39.6,30.6,29.99,NW,315,0.0,1.3,70,0.00,,,0.00,WUHU216HW,2013-03-29 07:05:00,
2013-03-29 03:10:00,39.4,30.4,29.99,NW,315,0.0,1.1,70,0.00,,,0.00,WUHU216HW,2013-03-29 07:10:00,
2013-03-29 03:15:00,39.1,30.1,29.99,NW,315,0.0,1.1,70,0.00,,,0.00,WUHU216HW,2013-03-29 07:15:00,
2013-03-29 03:20:00,38.7,29.8,29.99,NW,315,0.0,0.4,70,0.00,,,0.00,WUHU216HW,2013-03-29 07:20:00,
2013-03-29 03:25:00,38.3,29.4,29.99,NW,315,0.0,0.2,70,0.00,,,0.00,WUHU216HW,2013-03-29 07:25:00,
2013-03-29 03:30:00,38.0,29.1,29.99,NW,315,0.0,0.0,70,0.00,,,0.00,WUHU216HW,2013-03-29 07:30:00,
2013-03-29 03:35:00,37.6,29.1,29.99,NW,315,0.0,1.1,71,0.00,,,0.00,WUHU216HW,2013-03-29 07:35:00,
2013-03-29 03:40:00,37.4,29.0,29.99,WNW,293,0.4,1.6,71,0.00,,,0.00,WUHU216HW,2013-03-29 07:40:00,
2013-03-29 03:45:00,37.4,29.0,29.99,WNW,293,0.4,1.6,71,0.00,,,0.00,WUHU216HW,2013-03-29 07:45:00,
2013-03-29 03:50:00,37.3,28.8,29.99,NNW,338,0.4,0.4,71,0.00,,,0.00,WUHU216HW,2013-03-29 07:50:00,
2013-03-29 03:55:00,37.1,28.6,29.99,NNW,338,0.0,0.4,71,0.00,,,0.00,WUHU216HW,2013-03-29 07:55:00,
2013-03-29 04:00:00,37.1,28.6,29.99,NNW,338,0.0,0.4,71,0.00,,,0.00,WUHU216HW,2013-03-29 08:00:00,
2013-03-29 04:05:00,36.9,28.5,29.99,North,0,1.1,1.1,71,0.00,,,0.00,WUHU216HW,2013-03-29 08:05:00,
2013-03-29 04:10:00,36.7,28.3,29.99,NW,315,0.0,1.1,71,0.00,,,0.00,WUHU216HW,2013-03-29 08:10:00,
2013-03-29 04:15:00,36.4,27.9,29.99,ENE,68,0.0,0.9,71,0.00,,,0.00,WUHU216HW,2013-03-29 08:15:00,
2013-03-29 04:20:00,36.2,27.7,29.99,ENE,68,0.0,0.7,71,0.00,,,0.00,WUHU216HW,2013-03-29 08:20:00,
2013-03-29 04:25:00,36.0,27.8,29.98,ENE,68,0.0,0.4,72,0.00,,,0.00,WUHU216HW,2013-03-29 08:25:00,
2013-03-29 04:30:00,35.6,27.5,29.98,NNW,338,0.7,0.7,72,0.00,,,0.00,WUHU216HW,2013-03-29 08:30:00,
2013-03-29 04:35:00,35.6,27.5,29.98,NNW,338,0.0,0.9,72,0.00,,,0.00,WUHU216HW,2013-03-29 08:35:00,
2013-03-29 04:40:00,35.3,27.1,29.98,NNW,338,0.0,0.9,72,0.00,,,0.00,WUHU216HW,2013-03-29 08:40:00,
2013-03-29 04:45:00,35.1,26.9,29.98,NNW,338,0.0,0.0,72,0.00,,,0.00,WUHU216HW,2013-03-29 08:45:00,
2013-03-29 04:50:00,34.9,27.1,29.98,NNW,338,0.0,0.2,73,0.00,,,0.00,WUHU216HW,2013-03-29 08:50:00,
2013-03-29 04:55:00,34.9,27.1,29.98,NW,315,0.0,1.8,73,0.00,,,0.00,WUHU216HW,2013-03-29 08:55:00,
2013-03-29 05:00:00,34.9,27.1,29.98,NW,315,0.0,1.8,73,0.00,,,0.00,WUHU216HW,2013-03-29 09:00:00,
2013-03-29 05:05:00,34.9,27.1,29.99,NW,315,0.0,0.0,73,0.00,,,0.00,WUHU216HW,2013-03-29 09:05:00,
2013-03-29 05:10:00,34.7,26.9,29.99,NW,315,0.0,0.0,73,0.00,,,0.00,WUHU216HW,2013-03-29 09:10:00,
2013-03-29 05:15:00,34.6,26.7,29.99,WNW,293,0.0,0.7,73,0.00,,,0.00,WUHU216HW,2013-03-29 09:15:00,
2013-03-29 05:20:00,34.4,26.6,29.99,WNW,293,0.0,0.7,73,0.00,,,0.00,WUHU216HW,2013-03-29 09:20:00,
2013-03-29 05:25:00,34.2,26.4,29.99,WNW,293,0.7,0.7,73,0.00,,,0.00,WUHU216HW,2013-03-29 09:25:00,
2013-03-29 05:30:00,34.2,26.4,29.99,WNW,293,0.0,0.7,73,0.00,,,0.00,WUHU216HW,2013-03-29 09:30:00,
2013-03-29 05:35:00,34.0,26.2,29.99,WNW,293,0.0,0.0,73,0.00,,,0.00,WUHU216HW,2013-03-29 09:35:00,
2013-03-29 05:40:00,33.7,25.8,29.99,WNW,293,0.0,0.0,73,0.00,,,0.00,WUHU216HW,2013-03-29 09:40:00,
2013-03-29 05:45:00,33.5,25.7,29.99,WNW,293,0.0,0.0,73,0.00,,,0.00,WUHU216HW,2013-03-29 09:45:00,
2013-03-29 05:51:00,33.3,25.8,29.99,WNW,293,0.0,0.0,74,0.00,,,0.00,WUHU216HW,2013-03-29 09:51:00,
2013-03-29 05:56:00,33.3,25.8,29.99,WNW,293,0.0,0.0,74,0.00,,,0.00,WUHU216HW,2013-03-29 09:56:00,
2013-03-29 06:01:00,33.1,26.0,29.99,WNW,293,0.0,0.0,75,0.00,,,0.00,WUHU216HW,2013-03-29 10:01:00,
2013-03-29 06:06:00,33.1,26.0,29.98,WNW,293,0.0,0.0,75,0.00,,,0.00,WUHU216HW,2013-03-29 10:06:00,
2013-03-29 06:11:00,32.9,25.8,29.98,WNW,293,0.0,0.0,75,0.00,,,0.00,WUHU216HW,2013-03-29 10:11:00,
2013-03-29 06:16:00,32.8,26.0,29.98,WNW,293,0.0,0.0,76,0.00,,,0.00,WUHU216HW,2013-03-29 10:16:00,
2013-03-29 06:21:00,32.8,26.0,29.99,WNW,293,0.0,0.4,76,0.00,,,0.00,WUHU216HW,2013-03-29 10:21:00,
2013-03-29 06:26:00,32.4,25.7,29.99,WNW,293,0.0,0.4,76,0.00,,,0.00,WUHU216HW,2013-03-29 10:26:00,
2013-03-29 06:31:00,32.0,25.4,29.99,WNW,293,0.0,0.0,76,0.00,,,0.00,WUHU216HW,2013-03-29 10:31:00,
2013-03-29 06:36:00,31.7,25.0,29.99,WNW,293,0.0,0.0,76,0.00,,,0.00,WUHU216HW,2013-03-29 10:36:00,
2013-03-29 06:41:00,31.5,24.9,29.98,WNW,293,0.0,0.9,76,0.00,,,0.00,WUHU216HW,2013-03-29 10:41:00,
2013-03-29 06:46:00,31.5,25.1,29.99,WNW,293,0.2,0.9,77,0.00,,,0.00,WUHU216HW,2013-03-29 10:46:00,
2013-03-29 06:51:00,31.5,25.1,29.99,WNW,293,0.0,0.7,77,0.00,,,0.00,WUHU216HW,2013-03-29 10:51:00,
2013-03-29 06:56:00,31.5,25.5,29.99,SSE,158,0.7,0.7,78,0.00,,,0.00,WUHU216HW,2013-03-29 10:56:00,
2013-03-29 07:02:00,31.3,25.3,29.99,SW,225,0.0,0.9,78,0.00,,,0.00,WUHU216HW,2013-03-29 11:02:00,
2013-03-29 07:07:00,31.1,25.1,29.99,SW,225,0.0,0.9,78,0.00,,,0.00,WUHU216HW,2013-03-29 11:07:00,
2013-03-29 07:12:00,31.0,24.9,29.99,SW,225,0.7,0.9,78,0.00,,,0.00,WUHU216HW,2013-03-29 11:12:00,
2013-03-29 07:17:00,30.6,24.6,29.99,SW,225,0.0,0.7,78,0.00,,,0.00,WUHU216HW,2013-03-29 11:17:00,
2013-03-29 07:23:00,30.8,24.8,30.00,SW,225,0.0,0.7,78,0.00,,,0.00,WUHU216HW,2013-03-29 11:23:00,
2013-03-29 07:28:00,31.0,24.9,30.00,SW,225,0.0,0.7,78,0.00,,,0.00,WUHU216HW,2013-03-29 11:28:00,
2013-03-29 07:33:00,31.3,25.3,30.00,SW,225,0.0,0.0,78,0.00,,,0.00,WUHU216HW,2013-03-29 11:33:00,
2013-03-29 07:38:00,31.7,25.9,30.00,SW,225,0.0,0.0,79,0.00,,,0.00,WUHU216HW,2013-03-29 11:38:00,
2013-03-29 07:43:00,32.4,27.0,30.00,SW,225,0.4,0.4,80,0.00,,,0.00,WUHU216HW,2013-03-29 11:43:00,
2013-03-29 07:48:00,32.9,27.5,30.00,SW,225,0.4,0.4,80,0.00,,,0.00,WUHU216HW,2013-03-29 11:48:00,
2013-03-29 07:53:00,33.7,28.1,30.00,SW,225,0.0,0.4,80,0.00,,,0.00,WUHU216HW,2013-03-29 11:53:00,
2013-03-29 07:58:00,34.7,29.2,30.00,SW,225,0.0,0.4,80,0.00,,,0.00,WUHU216HW,2013-03-29 11:58:00,
2013-03-29 08:03:00,35.8,29.9,30.01,SW,225,0.4,0.9,79,0.00,,,0.00,WUHU216HW,2013-03-29 12:03:00,
2013-03-29 08:08:00,36.7,30.8,30.01,SW,225,0.0,0.9,79,0.00,,,0.00,WUHU216HW,2013-03-29 12:08:00,
2013-03-29 08:13:00,37.8,31.6,30.01,SW,225,0.0,0.9,78,0.00,,,0.00,WUHU216HW,2013-03-29 12:13:00,
2013-03-29 08:18:00,38.7,32.1,30.01,WSW,248,0.7,0.9,77,0.00,,,0.00,WUHU216HW,2013-03-29 12:18:00,
2013-03-29 08:23:00,39.4,32.5,30.01,NW,315,1.3,2.0,76,0.00,,,0.00,WUHU216HW,2013-03-29 12:23:00,
2013-03-29 08:28:00,40.3,32.7,30.01,WNW,293,0.7,2.2,74,0.00,,,0.00,WUHU216HW,2013-03-29 12:28:00,
2013-03-29 08:33:00,41.2,33.5,30.01,WNW,293,0.9,2.2,74,0.00,,,0.00,WUHU216HW,2013-03-29 12:33:00,
2013-03-29 08:38:00,41.9,33.6,30.01,WSW,248,0.9,1.3,72,0.00,,,0.00,WUHU216HW,2013-03-29 12:38:00,
2013-03-29 08:43:00,42.8,33.8,30.01,West,270,0.4,2.7,70,0.00,,,0.00,WUHU216HW,2013-03-29 12:43:00,
2013-03-29 08:48:00,43.4,33.9,30.01,North,0,0.7,2.7,69,0.00,,,0.00,WUHU216HW,2013-03-29 12:48:00,
2013-03-29 08:53:00,44.1,33.5,30.01,WSW,248,2.2,2.2,66,0.00,,,0.00,WUHU216HW,2013-03-29 12:53:00,
2013-03-29 08:58:00,44.3,33.6,30.01,North,0,1.8,2.2,66,0.00,,,0.00,WUHU216HW,2013-03-29 12:58:00,
2013-03-29 09:03:00,44.6,32.9,30.01,NNE,23,2.7,3.1,63,0.00,,,0.00,WUHU216HW,2013-03-29 13:03:00,
2013-03-29 09:08:00,45.0,33.6,30.01,NE,45,1.1,3.1,64,0.00,,,0.00,WUHU216HW,2013-03-29 13:08:00,
2013-03-29 09:13:00,45.4,33.5,30.01,North,0,0.9,1.8,63,0.00,,,0.00,WUHU216HW,2013-03-29 13:13:00,
2013-03-29 09:18:00,45.7,33.4,30.01,NNW,338,0.4,3.1,62,0.00,,,0.00,WUHU216HW,2013-03-29 13:18:00,
2013-03-29 09:23:00,45.9,33.2,30.01,ESE,113,1.1,3.1,61,0.00,,,0.00,WUHU216HW,2013-03-29 13:23:00,
2013-03-29 09:28:00,46.6,33.0,30.01,East,90,1.6,2.7,59,0.00,,,0.00,WUHU216HW,2013-03-29 13:28:00,
2013-03-29 09:33:00,46.8,32.8,30.01,North,0,4.7,4.7,58,0.00,,,0.00,WUHU216HW,2013-03-29 13:33:00,
2013-03-29 09:38:00,47.3,34.6,30.01,WSW,248,1.8,4.7,61,0.00,,,0.00,WUHU216HW,2013-03-29 13:38:00,
2013-03-29 09:43:00,47.9,32.9,30.01,NNE,23,2.0,3.1,56,0.00,,,0.00,WUHU216HW,2013-03-29 13:43:00,
2013-03-29 09:48:00,47.9,33.4,30.01,North,0,1.3,3.4,57,0.00,,,0.00,WUHU216HW,2013-03-29 13:48:00,
2013-03-29 09:53:00,48.1,32.6,30.01,NNW,338,0.7,3.4,55,0.00,,,0.00,WUHU216HW,2013-03-29 13:53:00,
2013-03-29 09:58:00,48.1,33.0,30.01,NNW,338,1.1,3.1,56,0.00,,,0.00,WUHU216HW,2013-03-29 13:58:00,
2013-03-29 10:03:00,49.0,33.5,30.01,WNW,293,0.9,2.2,55,0.00,,,0.00,WUHU216HW,2013-03-29 14:03:00,
2013-03-29 10:08:00,49.9,34.7,30.01,NNW,338,0.9,2.2,56,0.00,,,0.00,WUHU216HW,2013-03-29 14:08:00,
2013-03-29 10:13:00,50.0,33.1,30.01,North,0,2.5,5.4,52,0.00,,,0.00,WUHU216HW,2013-03-29 14:13:00,
2013-03-29 10:18:00,49.5,32.6,30.01,WNW,293,2.0,5.4,52,0.00,,,0.00,WUHU216HW,2013-03-29 14:18:00,
2013-03-29 10:23:00,49.5,31.7,30.01,North,0,5.8,5.8,50,0.00,,,0.00,WUHU216HW,2013-03-29 14:23:00,
2013-03-29 10:28:00,49.9,32.9,30.01,NNW,338,2.5,5.8,52,0.00,,,0.00,WUHU216HW,2013-03-29 14:28:00,
2013-03-29 10:33:00,50.2,32.9,30.01,NE,45,2.9,4.7,51,0.00,,,0.00,WUHU216HW,2013-03-29 14:33:00,
2013-03-29 10:38:00,50.4,33.0,30.01,ESE,113,2.5,4.7,51,0.00,,,0.00,WUHU216HW,2013-03-29 14:38:00,
2013-03-29 10:43:00,51.8,35.2,30.01,WNW,293,1.1,3.4,53,0.00,,,0.00,WUHU216HW,2013-03-29 14:43:00,
2013-03-29 10:48:00,52.7,35.1,30.01,NNE,23,0.4,3.4,51,0.00,,,0.00,WUHU216HW,2013-03-29 14:48:00,
2013-03-29 10:53:00,52.9,35.3,30.01,SSW,203,0.7,2.7,51,0.00,,,0.00,WUHU216HW,2013-03-29 14:53:00,
2013-03-29 10:58:00,53.6,34.9,30.01,WSW,248,2.2,4.0,49,0.00,,,0.00,WUHU216HW,2013-03-29 14:58:00,
2013-03-29 11:03:00,54.0,35.2,30.01,West,270,2.5,4.0,49,0.00,,,0.00,WUHU216HW,2013-03-29 15:03:00,
2013-03-29 11:08:00,54.0,34.7,30.01,SW,225,2.5,3.4,48,0.00,,,0.00,WUHU216HW,2013-03-29 15:08:00,
2013-03-29 11:13:00,54.5,36.3,30.01,NNE,23,0.7,3.4,50,0.00,,,0.00,WUHU216HW,2013-03-29 15:13:00,
2013-03-29 11:18:00,55.1,36.2,30.01,SSW,203,2.5,2.5,49,0.00,,,0.00,WUHU216HW,2013-03-29 15:18:00,
2013-03-29 11:23:00,55.3,35.8,30.01,WSW,248,0.2,2.5,48,0.00,,,0.00,WUHU216HW,2013-03-29 15:23:00,
2013-03-29 11:28:00,55.8,36.4,30.00,WSW,248,0.9,2.5,48,0.00,,,0.00,WUHU216HW,2013-03-29 15:28:00,
2013-03-29 11:33:00,56.5,37.6,30.00,SSW,203,1.1,3.4,49,0.00,,,0.00,WUHU216HW,2013-03-29 15:33:00,
2013-03-29 11:38:00,57.1,36.4,30.00,WSW,248,1.8,4.0,46,0.00,,,0.00,WUHU216HW,2013-03-29 15:38:00,
2013-03-29 11:43:00,56.9,36.3,30.00,West,270,1.3,4.0,46,0.00,,,0.00,WUHU216HW,2013-03-29 15:43:00,
2013-03-29 11:49:00,56.9,36.3,30.00,WSW,248,2.2,3.4,46,0.00,,,0.00,WUHU216HW,2013-03-29 15:49:00,
2013-03-29 11:54:00,56.7,35.5,30.00,WSW,248,3.4,4.3,45,0.00,,,0.00,WUHU216HW,2013-03-29 15:54:00,
2013-03-29 11:59:00,56.7,35.5,30.00,SSW,203,2.2,4.3,45,0.00,,,0.00,WUHU216HW,2013-03-29 15:59:00,
2013-03-29 12:04:00,57.1,36.4,29.99,WSW,248,3.6,4.0,46,0.00,,,0.00,WUHU216HW,2013-03-29 16:04:00,
2013-03-29 12:09:00,57.2,36.0,29.99,West,270,2.7,3.6,45,0.00,,,0.00,WUHU216HW,2013-03-29 16:09:00,
2013-03-29 12:14:00,57.4,35.6,29.99,WSW,248,2.7,4.0,44,0.00,,,0.00,WUHU216HW,2013-03-29 16:14:00,
2013-03-29 12:19:00,58.0,36.1,29.99,SW,225,2.5,4.7,44,0.00,,,0.00,WUHU216HW,2013-03-29 16:19:00,
2013-03-29 12:24:00,58.1,34.5,29.99,WSW,248,2.0,4.7,41,0.00,,,0.00,WUHU216HW,2013-03-29 16:24:00,
2013-03-29 12:29:00,57.4,31.1,29.99,West,270,2.2,3.4,37,0.00,,,0.00,WUHU216HW,2013-03-29 16:29:00,
2013-03-29 12:34:00,57.2,34.3,29.98,WNW,293,1.3,2.2,42,0.00,,,0.00,WUHU216HW,2013-03-29 16:34:00,
2013-03-29 12:39:00,58.0,36.1,29.98,SE,135,1.6,3.8,44,0.00,,,0.00,WUHU216HW,2013-03-29 16:39:00,
2013-03-29 12:44:00,58.3,35.8,29.98,SSE,158,2.5,3.8,43,0.00,,,0.00,WUHU216HW,2013-03-29 16:44:00,
2013-03-29 12:49:00,58.1,35.6,29.98,WSW,248,0.9,3.1,43,0.00,,,0.00,WUHU216HW,2013-03-29 16:49:00,
2013-03-29 12:54:00,58.0,35.5,29.98,SW,225,1.8,2.9,43,0.00,,,0.00,WUHU216HW,2013-03-29 16:54:00,
2013-03-29 12:59:00,57.1,34.7,29.98,NW,315,1.3,2.5,43,0.00,,,0.00,WUHU216HW,2013-03-29 16:59:00,
2013-03-29 13:04:00,56.2,33.8,29.98,SW,225,2.2,2.5,43,0.00,,,0.00,WUHU216HW,2013-03-29 17:04:00,
2013-03-29 13:09:00,54.9,32.1,29.97,West,270,1.1,2.2,42,0.00,,,0.00,WUHU216HW,2013-03-29 17:09:00,
2013-03-29 13:14:00,55.4,33.8,29.97,SW,225,2.5,2.7,44,0.00,,,0.00,WUHU216HW,2013-03-29 17:14:00,
2013-03-29 13:19:00,57.4,36.2,29.97,SSW,203,4.0,4.0,45,0.00,,,0.00,WUHU216HW,2013-03-29 17:19:00,
2013-03-29 13:24:00,59.6,37.0,29.97,SW,225,4.0,5.4,43,0.00,,,0.00,WUHU216HW,2013-03-29 17:24:00,
2013-03-29 13:29:00,60.1,35.7,29.96,WSW,248,4.5,5.6,40,0.00,,,0.00,WUHU216HW,2013-03-29 17:29:00,
2013-03-29 13:34:00,58.5,34.3,29.96,SSW,203,4.0,5.6,40,0.00,,,0.00,WUHU216HW,2013-03-29 17:34:00,
2013-03-29 13:39:00,58.9,34.6,29.96,SW,225,3.4,5.4,40,0.00,,,0.00,WUHU216HW,2013-03-29 17:39:00,
2013-03-29 13:44:00,57.8,33.0,29.96,SE,135,1.6,3.6,39,0.00,,,0.00,WUHU216HW,2013-03-29 17:44:00,
2013-03-29 13:49:00,56.5,32.5,29.96,North,0,1.1,1.6,40,0.00,,,0.00,WUHU216HW,2013-03-29 17:49:00,
2013-03-29 13:54:00,56.2,32.1,29.96,WSW,248,1.1,2.7,40,0.00,,,0.00,WUHU216HW,2013-03-29 17:54:00,
2013-03-29 13:59:00,55.4,31.5,29.96,WSW,248,1.3,4.3,40,0.00,,,0.00,WUHU216HW,2013-03-29 17:59:00,
2013-03-29 14:04:00,55.8,32.9,29.96,SW,225,1.1,4.3,42,0.00,,,0.00,WUHU216HW,2013-03-29 18:04:00,
2013-03-29 14:09:00,57.2,33.7,29.95,SW,225,4.0,4.0,41,0.00,,,0.00,WUHU216HW,2013-03-29 18:09:00,
2013-03-29 14:14:00,57.2,32.4,29.95,WNW,293,0.9,4.0,39,0.00,,,0.00,WUHU216HW,2013-03-29 18:14:00,
2013-03-29 14:19:00,57.1,33.6,29.95,WSW,248,1.8,2.5,41,0.00,,,0.00,WUHU216HW,2013-03-29 18:19:00,
2013-03-29 14:24:00,56.9,33.4,29.95,WSW,248,0.9,2.5,41,0.00,,,0.00,WUHU216HW,2013-03-29 18:24:00,
2013-03-29 14:29:00,56.5,33.0,29.94,ESE,113,0.9,2.5,41,0.00,,,0.00,WUHU216HW,2013-03-29 18:29:00,
2013-03-29 14:34:00,56.5,33.0,29.94,WNW,293,0.9,2.2,41,0.00,,,0.00,WUHU216HW,2013-03-29 18:34:00,
2013-03-29 14:39:00,55.8,31.2,29.94,North,0,0.2,3.4,39,0.00,,,0.00,WUHU216HW,2013-03-29 18:39:00,
2013-03-29 14:44:00,55.8,32.4,29.94,South,180,1.8,3.4,41,0.00,,,0.00,WUHU216HW,2013-03-29 18:44:00,
2013-03-29 14:49:00,56.2,32.7,29.94,SSW,203,1.6,3.1,41,0.00,,,0.00,WUHU216HW,2013-03-29 18:49:00,
2013-03-29 14:54:00,55.8,30.4,29.94,NW,315,3.6,3.6,38,0.00,,,0.00,WUHU216HW,2013-03-29 18:54:00,
2013-03-29 14:59:00,55.6,31.7,29.94,ENE,68,0.2,3.6,40,0.00,,,0.00,WUHU216HW,2013-03-29 18:59:00,
2013-03-29 15:04:00,55.8,31.9,29.94,WSW,248,0.9,2.9,40,0.00,,,0.00,WUHU216HW,2013-03-29 19:04:00,
2013-03-29 15:09:00,55.8,32.4,29.94,SSW,203,0.4,2.7,41,0.00,,,0.00,WUHU216HW,2013-03-29 19:09:00,
2013-03-29 15:14:00,55.6,31.0,29.94,WSW,248,2.2,2.7,39,0.00,,,0.00,WUHU216HW,2013-03-29 19:14:00,
2013-03-29 15:19:00,55.1,31.1,29.94,West,270,1.1,2.2,40,0.00,,,0.00,WUHU216HW,2013-03-29 19:19:00,
2013-03-29 15:24:00,54.5,30.0,29.94,NNW,338,2.5,2.5,39,0.00,,,0.00,WUHU216HW,2013-03-29 19:24:00,
2013-03-29 15:29:00,54.4,30.5,29.94,North,0,0.7,2.5,40,0.00,,,0.00,WUHU216HW,2013-03-29 19:29:00,
2013-03-29 15:34:00,54.2,30.3,29.94,SSW,203,4.0,4.0,40,0.00,,,0.00,WUHU216HW,2013-03-29 19:34:00,
2013-03-29 15:39:00,54.0,30.3,29.94,West,270,1.8,4.0,40,0.00,,,0.00,WUHU216HW,2013-03-29 19:39:00,
2013-03-29 15:44:00,53.6,29.2,29.94,WNW,293,1.1,4.0,39,0.00,,,0.00,WUHU216HW,2013-03-29 19:44:00,
2013-03-29 15:49:00,53.3,30.2,29.94,WSW,248,0.9,4.0,41,0.00,,,0.00,WUHU216HW,2013-03-29 19:49:00,
2013-03-29 15:54:00,53.5,30.2,29.93,SW,225,2.5,2.5,41,0.00,,,0.00,WUHU216HW,2013-03-29 19:54:00,
2013-03-29 15:59:00,53.3,30.2,29.93,SSW,203,4.3,4.3,41,0.00,,,0.00,WUHU216HW,2013-03-29 19:59:00,
2013-03-29 16:04:00,52.9,29.8,29.93,SSW,203,1.8,4.3,41,0.00,,,0.00,WUHU216HW,2013-03-29 20:04:00,
2013-03-29 16:09:00,52.9,29.8,29.93,SW,225,1.3,4.3,41,0.00,,,0.00,WUHU216HW,2013-03-29 20:09:00,
2013-03-29 16:14:00,53.5,30.9,29.93,SSW,203,4.7,4.7,42,0.00,,,0.00,WUHU216HW,2013-03-29 20:14:00,
2013-03-29 16:19:00,54.0,31.3,29.93,SW,225,1.6,4.7,42,0.00,,,0.00,WUHU216HW,2013-03-29 20:19:00,
2013-03-29 16:24:00,53.8,30.6,29.93,South,180,1.1,4.0,41,0.00,,,0.00,WUHU216HW,2013-03-29 20:24:00,
2013-03-29 16:29:00,53.6,29.9,29.93,WSW,248,2.2,2.5,40,0.00,,,0.00,WUHU216HW,2013-03-29 20:29:00,
2013-03-29 16:34:00,53.3,30.7,29.93,SSW,203,2.7,4.7,42,0.00,,,0.00,WUHU216HW,2013-03-29 20:34:00,
2013-03-29 16:39:00,53.1,30.5,29.93,SW,225,1.1,4.7,42,0.00,,,0.00,WUHU216HW,2013-03-29 20:39:00,
2013-03-29 16:44:00,52.7,29.6,29.93,SW,225,1.3,3.4,41,0.00,,,0.00,WUHU216HW,2013-03-29 20:44:00,
2013-03-29 16:49:00,52.6,30.1,29.93,West,270,3.8,3.8,42,0.00,,,0.00,WUHU216HW,2013-03-29 20:49:00,
2013-03-29 16:55:00,52.4,29.4,29.93,West,270,1.1,3.8,41,0.00,,,0.00,WUHU216HW,2013-03-29 20:55:00,
2013-03-29 17:00:00,52.4,30.4,29.93,NW,315,2.0,3.4,43,0.00,,,0.00,WUHU216HW,2013-03-29 21:00:00,
2013-03-29 17:05:00,52.0,29.5,29.93,SW,225,2.0,3.4,42,0.00,,,0.00,WUHU216HW,2013-03-29 21:05:00,
2013-03-29 17:10:00,51.8,29.3,29.93,WSW,248,1.3,2.0,42,0.00,,,0.00,WUHU216HW,2013-03-29 21:10:00,
2013-03-29 17:15:00,51.5,29.1,29.94,West,270,1.1,2.7,42,0.00,,,0.00,WUHU216HW,2013-03-29 21:15:00,
2013-03-29 17:20:00,51.1,28.7,29.94,West,270,2.0,4.0,42,0.00,,,0.00,WUHU216HW,2013-03-29 21:20:00,
2013-03-29 17:25:00,50.6,28.8,29.94,WSW,248,0.9,4.0,43,0.00,,,0.00,WUHU216HW,2013-03-29 21:25:00,
2013-03-29 17:30:00,50.2,29.1,29.94,East,90,2.0,4.3,44,0.00,,,0.00,WUHU216HW,2013-03-29 21:30:00,
2013-03-29 17:35:00,50.0,28.9,29.94,West,270,1.8,4.3,44,0.00,,,0.00,WUHU216HW,2013-03-29 21:35:00,
2013-03-29 17:40:00,49.9,29.3,29.94,SSW,203,0.4,2.9,45,0.00,,,0.00,WUHU216HW,2013-03-29 21:40:00,
2013-03-29 17:45:00,49.5,28.9,29.95,West,270,1.8,4.0,45,0.00,,,0.00,WUHU216HW,2013-03-29 21:45:00,
2013-03-29 17:50:00,49.3,29.4,29.95,NNE,23,1.6,4.0,46,0.00,,,0.00,WUHU216HW,2013-03-29 21:50:00,
2013-03-29 17:55:00,49.0,29.0,29.95,NW,315,0.9,2.7,46,0.00,,,0.00,WUHU216HW,2013-03-29 21:55:00,
2013-03-29 18:00:00,48.8,28.8,29.95,West,270,0.4,3.4,46,0.00,,,0.00,WUHU216HW,2013-03-29 22:00:00,
2013-03-29 18:05:00,48.6,29.2,29.95,SSW,203,1.6,3.4,47,0.00,,,0.00,WUHU216HW,2013-03-29 22:05:00,
2013-03-29 18:10:00,48.4,29.0,29.95,NNW,338,1.1,3.4,47,0.00,,,0.00,WUHU216HW,2013-03-29 22:10:00,
2013-03-29 18:15:00,48.1,28.6,29.96,North,0,0.7,4.7,47,0.00,,,0.00,WUHU216HW,2013-03-29 22:15:00,
2013-03-29 18:20:00,48.1,29.2,29.96,NW,315,0.4,4.7,48,0.00,,,0.00,WUHU216HW,2013-03-29 22:20:00,
2013-03-29 18:25:00,48.1,29.2,29.96,WSW,248,1.1,1.6,48,0.00,,,0.00,WUHU216HW,2013-03-29 22:25:00,
2013-03-29 18:30:00,47.9,29.0,29.96,West,270,1.1,1.8,48,0.00,,,0.00,WUHU216HW,2013-03-29 22:30:00,
2013-03-29 18:35:00,47.7,28.9,29.96,WSW,248,2.2,2.2,48,0.00,,,0.00,WUHU216HW,2013-03-29 22:35:00,
2013-03-29 18:40:00,47.3,28.5,29.96,West,270,2.5,2.5,48,0.00,,,0.00,WUHU216HW,2013-03-29 22:40:00,
2013-03-29 18:45:00,47.0,28.7,29.96,WSW,248,1.1,2.7,49,0.00,,,0.00,WUHU216HW,2013-03-29 22:45:00,
2013-03-29 18:50:00,46.8,28.6,29.96,WNW,293,0.4,2.7,49,0.00,,,0.00,WUHU216HW,2013-03-29 22:50:00,
2013-03-29 18:55:00,46.6,29.0,29.96,NW,315,1.6,2.5,50,0.00,,,0.00,WUHU216HW,2013-03-29 22:55:00,
2013-03-29 19:00:00,46.4,28.8,29.96,SW,225,0.9,2.5,50,0.00,,,0.00,WUHU216HW,2013-03-29 23:00:00,
2013-03-29 19:05:00,46.1,28.4,29.96,SSW,203,1.8,2.2,50,0.00,,,0.00,WUHU216HW,2013-03-29 23:05:00,
2013-03-29 19:10:00,45.9,28.8,29.97,North,0,0.2,2.0,51,0.00,,,0.00,WUHU216HW,2013-03-29 23:10:00,
2013-03-29 19:15:00,45.7,28.6,29.97,NNW,338,3.4,3.4,51,0.00,,,0.00,WUHU216HW,2013-03-29 23:15:00,
2013-03-29 19:20:00,45.4,29.2,29.97,WSW,248,1.8,3.4,53,0.00,,,0.00,WUHU216HW,2013-03-29 23:20:00,
2013-03-29 19:25:00,45.2,29.0,29.97,SSW,203,0.4,2.7,53,0.00,,,0.00,WUHU216HW,2013-03-29 23:25:00,
2013-03-29 19:30:00,45.0,28.9,29.97,NNW,338,0.0,2.2,53,0.00,,,0.00,WUHU216HW,2013-03-29 23:30:00,
2013-03-29 19:35:00,45.0,29.4,29.97,NNE,23,1.6,1.8,54,0.00,,,0.00,WUHU216HW,2013-03-29 23:35:00,
2013-03-29 19:40:00,44.8,28.7,29.97,WSW,248,0.9,1.8,53,0.00,,,0.00,WUHU216HW,2013-03-29 23:40:00,
2013-03-29 19:45:00,44.5,28.4,29.97,North,0,1.8,1.8,53,0.00,,,0.00,WUHU216HW,2013-03-29 23:45:00,
2013-03-29 19:51:00,44.1,28.0,29.97,North,0,0.0,1.8,53,0.00,,,0.00,WUHU216HW,2013-03-29 23:51:00,
2013-03-29 19:56:00,43.6,27.6,29.97,North,0,1.1,1.8,53,0.00,,,0.00,WUHU216HW,2013-03-29 23:56:00,
2013-03-29 20:01:00,43.4,27.8,29.97,West,270,0.9,1.8,54,0.00,,,0.00,WUHU216HW,2013-03-30 00:01:00,
2013-03-29 20:06:00,42.8,27.7,29.97,SE,135,0.4,1.8,55,0.00,,,0.00,WUHU216HW,2013-03-30 00:06:00,
2013-03-29 20:11:00,42.7,27.5,29.97,ESE,113,0.7,1.1,55,0.00,,,0.00,WUHU216HW,2013-03-30 00:11:00,
2013-03-29 20:16:00,42.5,27.8,29.98,NNW,338,0.4,2.7,56,0.00,,,0.00,WUHU216HW,2013-03-30 00:16:00,
2013-03-29 20:21:00,42.1,27.5,29.98,WSW,248,0.0,2.7,56,0.00,,,0.00,WUHU216HW,2013-03-30 00:21:00,
2013-03-29 20:26:00,41.9,27.3,29.98,WSW,248,0.7,1.6,56,0.00,,,0.00,WUHU216HW,2013-03-30 00:26:00,
2013-03-29 20:31:00,41.8,27.5,29.98,West,270,0.2,0.7,57,0.00,,,0.00,WUHU216HW,2013-03-30 00:31:00,
2013-03-29 20:36:00,41.8,27.5,29.98,North,0,1.1,1.1,57,0.00,,,0.00,WUHU216HW,2013-03-30 00:36:00,
2013-03-29 20:41:00,41.8,28.0,29.98,WSW,248,0.0,1.8,58,0.00,,,0.00,WUHU216HW,2013-03-30 00:41:00,
2013-03-29 20:46:00,41.8,27.5,29.99,West,270,0.0,1.8,57,0.00,,,0.00,WUHU216HW,2013-03-30 00:46:00,
2013-03-29 20:51:00,41.8,27.5,29.99,WSW,248,0.0,1.3,57,0.00,,,0.00,WUHU216HW,2013-03-30 00:51:00,
2013-03-29 20:56:00,41.8,28.0,29.99,NW,315,0.4,1.3,58,0.00,,,0.00,WUHU216HW,2013-03-30 00:56:00,
2013-03-29 21:01:00,41.8,27.5,29.99,WNW,293,0.0,1.1,57,0.00,,,0.00,WUHU216HW,2013-03-30 01:01:00,
2013-03-29 21:06:00,41.6,27.9,29.99,NNW,338,0.2,1.8,58,0.00,,,0.00,WUHU216HW,2013-03-30 01:06:00,
2013-03-29 21:11:00,41.4,27.3,29.99,NNW,338,0.0,1.8,57,0.00,,,0.00,WUHU216HW,2013-03-30 01:11:00,
2013-03-29 21:16:00,41.0,27.4,29.99,NNW,338,0.0,0.0,58,0.00,,,0.00,WUHU216HW,2013-03-30 01:16:00,
2013-03-29 21:22:00,40.7,27.0,29.99,NNW,338,0.0,0.4,58,0.00,,,0.00,WUHU216HW,2013-03-30 01:22:00,
2013-03-29 21:27:00,40.3,26.6,29.99,NNW,338,0.0,0.4,58,0.00,,,0.00,WUHU216HW,2013-03-30 01:27:00,
2013-03-29 21:32:00,40.0,26.7,29.99,NNW,338,0.4,0.7,59,0.00,,,0.00,WUHU216HW,2013-03-30 01:32:00,
2013-03-29 21:37:00,39.8,26.6,29.99,NNW,338,0.0,0.7,59,0.00,,,0.00,WUHU216HW,2013-03-30 01:37:00,
2013-03-29 21:42:00,39.6,26.4,29.99,NNW,338,0.0,0.4,59,0.00,,,0.00,WUHU216HW,2013-03-30 01:42:00,
2013-03-29 21:47:00,39.6,27.2,30.00,NNW,338,0.2,0.4,61,0.00,,,0.00,WUHU216HW,2013-03-30 01:47:00,
2013-03-29 21:52:00,39.4,26.6,30.00,NNW,338,0.0,0.4,60,0.00,,,0.00,WUHU216HW,2013-03-30 01:52:00,
2013-03-29 21:57:00,39.2,26.5,30.00,NNW,338,0.0,0.0,60,0.00,,,0.00,WUHU216HW,2013-03-30 01:57:00,
2013-03-29 22:02:00,39.2,26.8,30.00,NNW,338,0.0,0.4,61,0.00,,,0.00,WUHU216HW,2013-03-30 02:02:00,
2013-03-29 22:07:00,39.2,26.8,30.00,NNW,338,0.0,0.7,61,0.00,,,0.00,WUHU216HW,2013-03-30 02:07:00,
2013-03-29 22:12:00,39.4,27.4,30.00,NW,315,1.1,1.1,62,0.00,,,0.00,WUHU216HW,2013-03-30 02:12:00,
2013-03-29 22:17:00,39.6,27.5,30.00,NW,315,0.0,1.1,62,0.00,,,0.00,WUHU216HW,2013-03-30 02:17:00,
2013-03-29 22:22:00,39.6,27.5,30.00,NW,315,0.0,1.1,62,0.00,,,0.00,WUHU216HW,2013-03-30 02:22:00,
2013-03-29 22:27:00,39.6,27.5,30.00,NW,315,0.0,0.9,62,0.00,,,0.00,WUHU216HW,2013-03-30 02:27:00,
2013-03-29 22:32:00,39.6,27.5,30.00,NW,315,0.2,0.9,62,0.00,,,0.00,WUHU216HW,2013-03-30 02:32:00,
2013-03-29 22:37:00,39.6,28.0,30.00,NW,315,1.1,1.1,63,0.00,,,0.00,WUHU216HW,2013-03-30 02:37:00,
2013-03-29 22:42:00,39.6,28.0,30.00,WSW,248,0.0,1.1,63,0.00,,,0.00,WUHU216HW,2013-03-30 02:42:00,
2013-03-29 22:48:00,39.6,28.0,30.00,NNW,338,0.4,1.1,63,0.00,,,0.00,WUHU216HW,2013-03-30 02:48:00,
2013-03-29 22:53:00,39.8,28.2,30.00,SW,225,0.0,1.1,63,0.00,,,0.00,WUHU216HW,2013-03-30 02:53:00,
2013-03-29 22:58:00,39.6,28.0,30.00,SW,225,0.0,0.9,63,0.00,,,0.00,WUHU216HW,2013-03-30 02:58:00,
2013-03-29 23:03:00,39.2,27.6,30.00,WSW,248,1.1,1.1,63,0.00,,,0.00,WUHU216HW,2013-03-30 03:03:00,
2013-03-29 23:08:00,39.2,27.6,30.00,North,0,0.2,1.1,63,0.00,,,0.00,WUHU216HW,2013-03-30 03:08:00,
2013-03-29 23:13:00,39.1,27.5,30.00,West,270,1.1,2.2,63,0.00,,,0.00,WUHU216HW,2013-03-30 03:13:00,
2013-03-29 23:18:00,39.1,27.5,30.00,West,270,0.0,2.2,63,0.00,,,0.00,WUHU216HW,2013-03-30 03:18:00,
2013-03-29 23:23:00,38.9,27.3,30.00,NNE,23,0.7,0.7,63,0.00,,,0.00,WUHU216HW,2013-03-30 03:23:00,
2013-03-29 23:28:00,38.9,27.6,30.00,WNW,293,0.4,1.1,64,0.00,,,0.00,WUHU216HW,2013-03-30 03:28:00,
2013-03-29 23:33:00,38.9,27.6,30.00,West,270,0.7,1.3,64,0.00,,,0.00,WUHU216HW,2013-03-30 03:33:00,
2013-03-29 23:38:00,38.7,27.5,30.00,West,270,2.2,2.2,64,0.00,,,0.00,WUHU216HW,2013-03-30 03:38:00,
2013-03-29 23:43:00,38.7,27.5,30.00,NNW,338,2.5,2.5,64,0.00,,,0.00,WUHU216HW,2013-03-30 03:43:00,
2013-03-29 23:48:00,38.5,27.7,30.00,SW,225,0.4,2.5,65,0.00,,,0.00,WUHU216HW,2013-03-30 03:48:00,
2013-03-29 23:53:00,38.5,27.7,30.00,NW,315,0.2,0.9,65,0.00,,,0.00,WUHU216HW,2013-03-30 03:53:00,
2013-03-29 23:58:00,38.5,27.7,30.00,NW,315,0.7,0.9,65,0.00,,,0.00,WUHU216HW,2013-03-30 03:58:00,